Tampa, FL

1:39 PM EDT on March 24, 2017 (GMT -0400)
Tampa International

Weather History for KTPA - October, 2011

Change the Weather History Date:

Wednesday, October 5, 2011

  Actual Average Record
Temperature  
Mean Temperature 77 °F 79 °F  
Max Temperature 87 °F 87 °F 93 °F (1971)
Min Temperature 67 °F 71 °F 57 °F (2014)
Degree Days  
Heating Degree Days 0 0  
Month to date heating degree days 0 0  
Since 1 July heating degree days 0 0  
Cooling Degree Days 12 14  
Month to date cooling degree days 48 71  
Year to date cooling degree days 3456 3087  
Growing Degree Days 26 (Base 50)    
Moisture  
Dew Point 61 °F    
Average Humidity 61    
Maximum Humidity 81    
Minimum Humidity 40    
Precipitation  
Precipitation 0.00 in 0.10 in 1.38 in (1995)
Month to date precipitation 0.00 0.55  
Year to date precipitation 48.62 40.57  
Sea Level Pressure  
Sea Level Pressure 30.10 in    
Wind  
Wind Speed 7 mph (NE)    
Max Wind Speed 13 mph    
Max Gust Speed 20 mph    
Visibility 10 miles    
Events      
T = Trace of Precipitation, MM = Missing Value Source: NWS Daily Summary

Daily Weather History Graph

Daily Weather History Graph

Search for Another Location

Airport or City:

Trip Planner

Search our weather history database for the weather conditions in past years. The results will help you decide how hot, cold, wet, or windy it might be!

Date:

Astronomy

Oct. 05, 2011 Rise Set
Actual Time 7:24 AM EDT 7:11 PM EDT
Civil Twilight 7:01 AM EDT 7:35 PM EDT
Nautical Twilight 6:34 AM EDT 8:02 PM EDT
Astronomical Twilight 6:07 AM EDT 8:29 PM EDT
Moon 3:24 PM EDT (10/5) 1:40 AM EDT (10/5)
Length of Visible Light 12h 33m
Length of Day
11h 47m
Waxing Gibbous, 66% of the Moon is Illuminated
Oct 5
Waxing Gibbous
Oct 11
Full
Oct 19
Last Quarter
Oct 26
New
Nov 2
First Quarter

Hourly Weather History & Observations

Time (EDT) Temp. Heat Index Dew Point Humidity Pressure Visibility Wind Dir Wind Speed Gust Speed Precip Events Conditions
12:53 AM 72.0 °F - 60.1 °F 66% 30.13 in 10.0 mi Variable 4.6 mph - N/A   Clear
1:53 AM 71.1 °F - 59.0 °F 66% 30.12 in 10.0 mi NE 5.8 mph - N/A   Clear
2:53 AM 70.0 °F - 59.0 °F 68% 30.11 in 10.0 mi NE 3.5 mph - N/A   Clear
3:53 AM 69.8 °F - 59.0 °F 68% 30.10 in 10.0 mi NE 4.6 mph - N/A   Clear
4:53 AM 69.1 °F - 59.0 °F 70% 30.10 in 10.0 mi NE 3.5 mph - N/A   Clear
5:53 AM 68.0 °F - 59.0 °F 73% 30.10 in 10.0 mi NE 3.5 mph - N/A   Clear
6:53 AM 66.9 °F - 60.1 °F 79% 30.12 in 10.0 mi NNE 6.9 mph - N/A   Partly Cloudy
7:53 AM 66.2 °F - 60.8 °F 83% 30.13 in 10.0 mi NE 5.8 mph - N/A   Partly Cloudy
8:53 AM 71.1 °F - 62.1 °F 73% 30.14 in 10.0 mi NNE 6.9 mph - N/A   Partly Cloudy
9:53 AM 75.9 °F - 62.1 °F 62% 30.14 in 10.0 mi NE 6.9 mph - N/A   Partly Cloudy
10:53 AM 80.1 °F 81.2 °F 62.1 °F 54% 30.14 in 10.0 mi NE 9.2 mph - N/A   Partly Cloudy
11:53 AM 82.0 °F 82.7 °F 61.0 °F 49% 30.13 in 10.0 mi ENE 8.1 mph 18.4 mph N/A   Scattered Clouds
12:53 PM 82.9 °F 83.7 °F 62.1 °F 49% 30.11 in 10.0 mi East 10.4 mph 17.3 mph N/A   Scattered Clouds
1:53 PM 84.9 °F 85.9 °F 63.0 °F 48% 30.09 in 10.0 mi Variable 3.5 mph 18.4 mph N/A   Scattered Clouds
2:53 PM 86.0 °F 86.6 °F 62.6 °F 45% 30.07 in 10.0 mi East 9.2 mph - N/A   Mostly Cloudy
3:53 PM 84.9 °F 85.4 °F 62.1 °F 46% 30.05 in 10.0 mi East 6.9 mph 17.3 mph N/A   Mostly Cloudy
4:53 PM 84.0 °F 84.0 °F 60.1 °F 44% 30.05 in 10.0 mi NE 9.2 mph 16.1 mph N/A   Mostly Cloudy
5:53 PM 84.9 °F 84.2 °F 57.9 °F 40% 30.04 in 10.0 mi Variable 6.9 mph - N/A   Mostly Cloudy
6:53 PM 82.4 °F 82.0 °F 57.2 °F 42% 30.04 in 10.0 mi ENE 5.8 mph - N/A   Partly Cloudy
7:53 PM 80.1 °F 80.6 °F 57.9 °F 47% 30.06 in 10.0 mi ENE 4.6 mph - N/A   Partly Cloudy
8:53 PM 78.1 °F - 60.1 °F 54% 30.08 in 10.0 mi ENE 3.5 mph - N/A   Partly Cloudy
9:53 PM 75.2 °F - 62.6 °F 65% 30.09 in 10.0 mi NE 8.1 mph 18.4 mph N/A   Clear
10:53 PM 73.9 °F - 63.0 °F 68% 30.10 in 10.0 mi NE 8.1 mph - N/A   Clear
11:53 PM 73.0 °F - 63.0 °F 71% 30.10 in 10.0 mi NE 9.2 mph - N/A   Clear